Погода в Поповке

Украина / Полтавская область     49°46′48″N   33°21′14″E
темп.,
°C
ветер,
м/с
пор.,
м/с
влажн.,
%
обл.,
%
осадки,
мм/ч
давл.,
гПа
погр.,
м
20 июня, вс
вс2000:00+20всв51384100 0.0 1018374
03:00+19всв61384100 0.0 1017345
06:00+19всв61378100 0.0 1017365
09:00+22в71571100 0.0 1016586
12:00+25в81361100 0.0 1016750
15:00+24в6116699 0.0 1016846
18:00+24в61270100 0.0 1015835
21:00+20всв5138128 0.0 1015410
21 июня, пн
пн2100:00+19в513840 0.0 1015310
03:00+17всв499216 0.0 1014179
06:00+18всв368811 0.0 1014151
09:00+23в4672100 0.0 1014429
12:00+26вюв5759100 0.0 1013902
15:00+27вюв67570 0.0 10131279
18:00+27вюв58663 0.0 1013932
21:00+22в34815 0.0 101462
22 июня, вт
вт2200:00+20в47834 0.0 1014109
03:00+18в3689100 0.9 101390
06:00+18всв4889100 0.4 1013151
09:00+23в51172100 0.8 1014409
12:00+26вюв595839 0.0 1014832
15:00+28вюв685540 0.0 10141093
18:00+27в48650 0.0 1014853
21:00+23всв47830 0.0 1014106
23 июня, ср
ср2300:00+20в47855 0.0 1014115
03:00+19всв359245 0.0 101482
06:00+20всв478711 0.0 1014130
09:00+24всв5868100 0.0 1014402
12:00+28вюв6858100 0.0 1014924
15:00+28вюв5663100 0.0 10151011
18:00+27в5875100 0.0 1015511
21:00+24в4878100 0.4 1016174
24 июня, чт
чт2400:00+22вюв3378100 0.0 101738
03:00+20в3383100 0.0 101730
06:00+21всв338594 0.0 101762
09:00+26всв576953 0.0 1017335
12:00+30в46515 0.0 1017680
15:00+32вюв46433 0.0 10171354
18:00+30вюв3461100 0.0 1017213
21:00+25в337697 0.0 101732